HK6REC-25 Weather Reports


Display with metric or nautical units.
time (UTC)temp
F
wind
direction
speed
MPH
gust
MPH
rain 1hr
in
rain 24hr
in
rain mn
in
humidity
%
barometer
mb
20260507190627 72 272 1.0 4.0 0.00 0.00 0.00 60 1009.0
20260507183626 74 272 1.0 4.0 0.00 0.00 0.00 60 1009.0
20260507180625 74 159 1.0 3.0 0.00 0.00 0.00 64 1010.0
20260507173624 76 159 1.0 3.0 0.00 0.00 0.00 64 1011.0
20260507170623 78 159 1.0 3.0 0.00 0.00 0.00 64 1012.0
20260507163621 80 159 1.0 3.0 0.00 0.00 0.00 64 1012.0
20260507160620 71 141 2.0 2.0 0.00 0.00 0.00 73 1014.0
20260507153619 67 128 1.0 1.0 0.00 0.00 0.00 76 1014.0
20260507150618 69 128 2.0 2.0 0.00 0.00 0.00 76 1015.0
20260507143617 64 120 1.0 1.0 0.00 0.00 0.00 80 1015.0
20260507140616 66 120 2.0 1.0 0.00 0.00 0.00 80 1015.0
20260507133615 63 115 1.0 1.0 0.00 0.00 0.00 86 1015.0
20260507130614 65 115 1.0 1.0 0.00 0.00 0.00 86 1015.0
20260507123613 60 115 1.0 1.0 0.00 0.00 0.00 89 1015.0
20260507120612 57 177 1.0 1.0 0.00 0.00 0.00 90 1015.0
20260507113611 59 177 1.0 1.0 0.00 0.00 0.00 90 1015.0
20260507110610 55 273 0.0 0.0 0.00 0.00 0.00 90 1015.0
20260507103609 57 273 0.0 0.0 0.00 0.00 0.00 90 1015.0
20260507100608 55 289 0.0 0.0 0.00 0.00 0.00 89 1015.0
20260507093607 57 289 0.0 0.0 0.00 0.00 0.00 89 1015.0
20260507090606 54 286 1.0 0.0 0.00 0.00 0.00 88 1015.0
20260507083605 56 286 1.0 0.0 0.00 0.00 0.00 88 1014.0
20260507080604 58 286 1.0 0.0 0.00 0.00 0.00 88 1015.0
20260507073603 55 315 1.0 1.0 0.00 0.00 0.00 93 1014.0
20260507070602 57 315 1.0 1.0 0.00 0.00 0.00 93 1015.0
20260507063601 59 315 1.0 1.0 0.00 0.00 0.00 93 1015.0
20260507060600 56 299 1.0 1.0 0.00 0.00 0.00 91 1015.0
20260507053559 58 299 2.0 1.0 0.00 0.00 0.00 91 1015.0
20260507050558 56 301 1.0 1.0 0.00 0.00 0.00 88 1016.0
20260507043557 58 301 2.0 1.0 0.00 0.00 0.00 88 1016.0
20260507040556 56 299 3.0 3.0 0.00 0.00 0.00 83 1016.0
20260507033555 58 299 3.0 3.0 0.00 0.00 0.00 83 1016.0
20260507030553 60 299 3.0 3.0 0.00 0.00 0.00 83 1016.0
20260507023553 57 303 4.0 3.0 0.00 0.00 0.00 82 1015.0
20260507020551 59 303 4.0 3.0 0.00 0.00 0.00 82 1015.0
20260507013550 58 303 4.0 3.0 0.00 0.00 0.00 83 1014.0
20260507010549 58 302 4.0 5.0 0.00 0.00 0.00 85 1014.0
20260507003548 58 302 4.0 5.0 0.00 0.00 0.00 76 1014.0
20260507000547 59 286 4.0 5.0 0.00 0.00 0.00 75 1013.0
20260506233547 61 286 4.0 5.0 0.00 0.00 0.00 75 1012.0
20260506230546 61 288 3.0 5.0 0.00 0.00 0.00 74 1011.0
20260506223545 63 288 3.0 5.0 0.00 0.00 0.00 74 1011.0
20260506220544 65 288 3.0 5.0 0.00 0.00 0.00 74 1010.0
20260506213543 67 288 3.0 5.0 0.00 0.00 0.00 74 1010.0
20260506210542 69 288 3.0 5.0 0.00 0.00 0.00 74 1009.0
20260506203540 71 288 3.0 6.0 0.00 0.00 0.00 74 1009.0
20260506200540 70 290 1.0 4.0 0.00 0.00 0.00 69 1009.0
20260506193539 72 290 2.0 4.0 0.00 0.00 0.00 69 1009.0